Latest Coastal Weather Observations for Lockhart River

IDQ60701

Issued at 11:51 am EST Friday 23 June 2017 (issued every 10 minutes, with the page automatically refreshed every 10 minutes)

About coastal observations | Map of coastal stations | Coastal observations for QLD | Marine services | Other Formats
Station Details ID: 028008 Name: LOCKHART RIVER AIRPORT Lat: -12.79 Lon: 143.30 Height: 18.5 m
Data from the previous 72 hours. | See also: Recent months at Lockhart River
Date/Time
EST
Temp
°C
Wind Pressure Rain since
9am
mm
Weather Cloud Vis
km
Sea
Height
m
Swell
Dir  Spd
kts
Gust
kts
hPa Trend Height
m
Period
s
Dir
23/11:30am 26.6 SE 17 25 1015.2 - 0.0 - - - - - - -
23/11:23am 26.4 ESE 15 25 1015.4 - 0.0 - - - - - - -
23/11:00am 26.7 SE 16 25 1015.4 - 0.0 - - - - - - -
23/10:30am 26.3 SE 17 26 1015.6 - 0.0 - - - - - - -
23/10:00am 25.9 ESE 14 23 1015.7 - 0.0 - Partly cloudy - - - - -
23/09:30am 25.4 ESE 9 21 1015.9 - 0.0 - Partly cloudy - - - - -
23/09:00am 24.9 ESE 3 19 1015.8 - 0.4 - Partly cloudy - - - - -
23/08:30am 24.4 ESE 5 15 1015.4 - 0.4 - - - - - - -
23/08:00am 24.0 ESE 4 15 1015.2 - 0.4 - Partly cloudy - - - - -
23/07:30am 23.5 ESE 3 16 1014.9 - 0.4 - Partly cloudy - - - - -
23/07:00am 23.3 SE 7 17 1014.7 - 0.4 - Cloudy - - - - -
23/06:30am 22.8 CALM 0 7 1014.5 - 0.4 - Partly cloudy - - - - -
23/06:00am 22.9 SE 1 14 1014.5 - 0.4 - Cloudy - - - - -
23/05:30am 22.8 CALM 0 11 1014.2 - 0.4 - Partly cloudy - - - - -
23/05:00am 22.4 SE 1 15 1014.0 - 0.4 - Partly cloudy - - - - -
23/04:30am 22.7 CALM 0 13 1014.0 - 0.4 - - - - - - -
23/04:00am 22.7 CALM 0 13 1013.9 - 0.4 - Partly cloudy - - - - -
23/03:30am 22.5 CALM 0 0 1014.1 - 0.4 - Partly cloudy - - - - -
23/03:00am 22.5 CALM 0 0 1014.2 - 0.4 Rain Cloudy - - - - -
23/02:30am 22.6 CALM 0 4 1014.3 - 0.2 - Partly cloudy - - - - -
23/02:00am 22.9 SE 5 14 1014.3 - 0.2 - Partly cloudy - - - - -
23/01:30am 22.9 SE 1 13 1014.7 - 0.2 - Partly cloudy - - - - -
23/01:00am 23.0 SE 6 18 1014.8 - 0.2 - Partly cloudy - - - - -
23/12:30am 23.2 SE 10 18 1015.0 - 0.2 - Partly cloudy - - - - -
23/12:00am 23.4 SE 11 18 1015.3 - 0.2 - Cloudy - - - - -
 
Date/Time
EST
Temp
°C
Wind Pressure Rain since
9am
mm
Weather Cloud Vis
km
Sea
Height
m
Swell
Dir  Spd
kts
Gust
kts
hPa Trend Height
m
Period
s
Dir
22/11:30pm 23.2 SE 8 17 1015.4 - 0.2 - Partly cloudy - - - - -
22/11:00pm 23.3 SE 12 20 1015.7 - 0.2 - Partly cloudy - - - - -
22/10:30pm 23.1 SE 9 17 1015.8 - 0.2 - Partly cloudy - - - - -
22/10:00pm 23.4 SE 13 18 1015.9 - 0.2 - Partly cloudy - - - - -
22/09:30pm 23.6 SE 13 17 1016.1 - 0.2 - Partly cloudy - - - - -
22/09:00pm 23.9 SE 13 20 1016.0 - 0.2 - Partly cloudy - - - - -
22/08:30pm 23.9 SE 15 21 1016.0 - 0.2 - Partly cloudy - - - - -
22/08:00pm 23.9 SE 13 19 1015.7 - 0.2 - Partly cloudy - - - - -
22/07:30pm 23.9 SE 14 21 1015.2 - 0.2 - Partly cloudy - - - - -
22/07:00pm 23.8 SE 12 18 1014.9 - 0.2 - Partly cloudy - - - - -
22/06:30pm 23.8 ESE 11 18 1014.8 - 0.2 - Partly cloudy - - - - -
22/06:00pm 24.6 SE 17 24 1014.4 - 0.2 - Cloudy - - - - -
22/05:35pm 24.6 SE 16 26 1014.2 - 0.2 - Partly cloudy - - - - -
22/05:30pm 24.6 SE 14 20 1014.1 - 0.2 - Partly cloudy - - - - -
22/05:00pm 24.7 SE 15 19 1013.9 - 0.2 - Partly cloudy - - - - -
22/04:46pm 24.9 SE 15 26 1013.8 - 0.2 - Partly cloudy - - - - -
22/04:30pm 25.0 ESE 14 22 1013.6 - 0.2 - Partly cloudy - - - - -
22/04:00pm 25.0 SE 16 24 1013.6 - 0.2 - Partly cloudy - - - - -
22/03:33pm 25.2 SE 18 28 1013.7 - 0.2 - Partly cloudy - - - - -
22/03:30pm 25.2 SE 18 26 1013.7 - 0.2 - Partly cloudy - - - - -
22/03:17pm 24.6 SE 17 27 1013.7 - 0.2 - Partly cloudy - - - - -
22/03:00pm 24.6 SE 17 23 1013.7 - 0.2 - Cloudy - - - - -
22/02:30pm 25.5 SE 17 24 1013.8 - 0.2 - Partly cloudy - - - - -
22/02:00pm 25.5 SE 11 24 1014.0 - 0.2 - Partly cloudy - - - - -
22/01:30pm 25.5 ESE 16 21 1014.4 - 0.2 - Partly cloudy - - - - -
22/01:08pm 25.9 ESE 15 27 1014.4 - 0.2 - Partly cloudy - - - - -
22/01:00pm 26.0 SE 18 25 1014.5 - 0.2 - Partly cloudy - - - - -
22/12:40pm 26.6 ESE 15 25 1014.7 - 0.2 - Partly cloudy - - - - -
22/12:30pm 26.7 ESE 14 26 1014.7 - 0.2 - Partly cloudy - - - - -
22/12:00pm 26.7 SE 17 28 1015.1 - 0.2 - Cloudy - - - - -
22/11:30am 26.2 ESE 16 25 1015.3 - 0.2 - Partly cloudy - - - - -
22/11:00am 25.9 SE 19 26 1015.6 - 0.2 - Partly cloudy - - - - -
22/10:36am 26.4 SE 18 28 1015.7 - 0.0 - Partly cloudy - - - - -
22/10:30am 26.2 ESE 16 23 1015.7 - 0.0 - Partly cloudy - - - - -
22/10:01am 25.5 ESE 15 25 1015.9 - 0.0 - Partly cloudy - - - - -
22/10:00am 25.5 ESE 16 25 1016.0 - 0.0 - Partly cloudy - - - - -
22/09:30am 25.9 ESE 15 25 1016.1 - 0.0 - Partly cloudy - - - - -
22/09:00am 25.1 ESE 14 22 1016.2 - 1.8 - Partly cloudy - - - - -
22/08:30am 24.7 SE 14 20 1016.1 - 1.8 - Partly cloudy - - - - -
22/08:00am 24.1 SE 6 15 1015.8 - 1.8 - Partly cloudy - - - - -
22/07:30am 23.7 ESE 4 16 1015.5 - 1.8 - - - - - - -
22/07:00am 23.5 SE 4 16 1015.1 - 1.8 - Partly cloudy - - - - -
22/06:30am 23.3 SE 3 15 1014.9 - 1.8 - Partly cloudy - - - - -
22/06:00am 23.4 SE 1 13 1014.8 - 1.8 - Mostly cloudy - - - - -
22/05:30am 23.4 SE 1 14 1014.6 - 1.8 - Cloudy - - - - -
22/05:00am 23.3 SE 1 15 1014.6 - 1.8 - Partly cloudy - - - - -
22/04:30am 23.4 CALM 0 13 1014.5 - 1.8 - Partly cloudy - - - - -
22/04:00am 23.2 CALM 0 12 1014.5 - 1.8 - Partly cloudy - - - - -
22/03:55am 23.2 CALM 0 0 1014.5 - 1.8 - Partly cloudy - - - - -
22/03:45am 23.0 SE 1 15 1014.5 - 1.8 - Partly cloudy - - - - -
22/03:30am 23.1 CALM 0 0 1014.5 - 1.8 - Partly cloudy - - - - -
22/03:00am 23.0 CALM 0 7 1014.7 - 1.8 - Cloudy - - - - -
22/02:30am 23.0 CALM 0 0 1014.9 - 1.8 - Partly cloudy - - - - -
22/02:00am 23.1 CALM 0 0 1015.2 - 1.8 - - - - - - -
22/01:30am 23.0 CALM 0 0 1015.4 - 1.8 - - - - - - -
22/01:00am 23.2 CALM 0 0 1015.7 - 1.8 - Partly cloudy - - - - -
22/12:30am 23.4 CALM 0 0 1015.8 - 1.8 - Partly cloudy - - - - -
22/12:00am 23.3 CALM 0 13 1016.0 - 1.8 - Cloudy - - - - -
 
Date/Time
EST
Temp
°C
Wind Pressure Rain since
9am
mm
Weather Cloud Vis
km
Sea
Height
m
Swell
Dir  Spd
kts
Gust
kts
hPa Trend Height
m
Period
s
Dir
21/11:30pm 23.4 CALM 0 0 1016.2 - 1.8 - Partly cloudy - - - - -
21/11:00pm 23.6 CALM 0 10 1016.4 - 1.8 - Partly cloudy - - - - -
21/10:30pm 23.5 CALM 0 0 1016.6 - 1.8 - Partly cloudy - - - - -
21/10:00pm 23.2 CALM 0 0 1016.5 - 1.8 - Partly cloudy - - - - -
21/09:30pm 22.8 CALM 0 0 1016.5 - 1.8 - Partly cloudy - - - - -
21/09:00pm 22.7 CALM 0 0 1016.3 - 1.8 Recent precip. Mostly cloudy - - - - -
21/08:30pm 23.1 SE 3 19 1016.0 - 1.6 - Partly cloudy - - - - -
21/08:00pm 23.6 CALM 0 13 1015.6 - 1.0 - Partly cloudy - - - - -
21/07:30pm 23.7 SE 1 15 1015.2 - 1.0 - Partly cloudy - - - - -
21/07:00pm 23.8 CALM 0 7 1015.0 - 1.0 - Partly cloudy - - - - -
21/06:30pm 23.8 ESE 1 12 1014.7 - 1.0 - Partly cloudy - - - - -
21/06:00pm 23.5 CALM 0 0 1014.5 - 1.0 Recent precip. Mostly cloudy - - - - -
21/05:30pm 23.7 ESE 10 18 1014.3 - 1.0 - Partly cloudy - - - - -
21/05:00pm 25.0 SE 10 16 1014.0 - 0.2 - Partly cloudy - - - - -
21/04:30pm 24.2 SE 5 13 1014.0 - 0.2 - Partly cloudy - - - - -
21/04:00pm 24.9 ESE 15 25 1014.0 - 0.2 - Partly cloudy - - - - -
21/03:30pm 25.5 ESE 15 21 1013.9 - 0.2 - Partly cloudy - - - - -
21/03:00pm 26.4 ESE 14 22 1013.7 - 0.2 - Cloudy - - - - -
21/02:30pm 26.7 SE 15 20 1013.7 - 0.2 - Partly cloudy - - - - -
21/02:08pm 25.8 ESE 13 20 1014.0 - 0.2 - Partly cloudy - - - - -
21/02:00pm 25.4 SE 13 22 1014.0 - 0.2 - Partly cloudy - - - - -
21/01:50pm 25.5 SSE 10 18 1014.0 - 0.2 - Partly cloudy - - - - -
21/01:47pm 25.6 SSE 10 17 1014.1 - 0.2 - Partly cloudy 10 - - - -
21/01:35pm 25.5 ESE 14 22 1014.2 - 0.2 - Partly cloudy - - - - -
21/01:30pm 25.7 ESE 14 22 1014.1 - 0.2 - Partly cloudy - - - - -
21/01:00pm 25.1 ESE 11 18 1014.5 - 0.2 - Partly cloudy - - - - -
21/12:36pm 24.6 ESE 11 19 1014.7 - 0.2 - Partly cloudy - - - - -
21/12:30pm 24.0 ESE 12 19 1014.8 - 0.2 - Partly cloudy - - - - -
21/12:05pm 25.7 SE 13 19 1014.9 - 0.0 - Partly cloudy - - - - -
21/12:00pm 25.7 SE 14 19 1015.0 - 0.0 - Cloudy - - - - -
21/11:30am 26.2 SE 13 18 1015.2 - 0.0 - Partly cloudy - - - - -
21/11:00am 25.2 SE 15 21 1015.4 - 0.0 - Partly cloudy - - - - -
21/10:30am 25.9 SE 15 23 1015.4 - 0.0 - Partly cloudy - - - - -
21/10:00am 25.6 SE 13 18 1015.6 - 0.0 - Partly cloudy - - - - -
21/09:30am 25.4 SE 16 23 1015.6 - 0.0 - Partly cloudy - - - - -
21/09:00am 25.2 SE 16 21 1015.6 - 0.0 - Partly cloudy - - - - -
21/08:30am 24.7 SE 9 16 1015.4 - 0.0 - Cloudy - - - - -
21/08:00am 24.4 SE 12 18 1015.2 - 0.0 - Cloudy - - - - -
21/07:30am 24.1 SE 10 17 1014.8 - 0.0 - Partly cloudy - - - - -
21/07:00am 23.8 SE 13 18 1014.5 - 0.0 - Partly cloudy - - - - -
21/06:30am 24.0 SE 13 22 1014.3 - 0.0 - Partly cloudy - - - - -
21/06:00am 24.0 SE 9 17 1014.2 - 0.0 - Cloudy - - - - -
21/05:30am 23.8 SE 5 15 1014.0 - 0.0 - Partly cloudy - - - - -
21/05:00am 23.5 SE 1 13 1013.9 - 0.0 - Partly cloudy - - - - -
21/04:30am 23.5 CALM 0 0 1013.9 - 0.0 - Partly cloudy - - - - -
21/04:00am 23.6 SE 2 13 1013.8 - 0.0 - Partly cloudy - - - - -
21/03:30am 23.6 SE 1 13 1013.8 - 0.0 - Cloudy - - - - -
21/03:00am 23.7 SE 1 14 1013.8 - 0.0 - Cloudy - - - - -
21/02:30am 23.8 SE 8 17 1013.8 - 0.0 - Cloudy - - - - -
21/02:00am 24.0 SE 12 19 1014.3 - 0.0 - Partly cloudy - - - - -
21/01:30am 23.8 SE 5 17 1014.6 - 0.0 - Partly cloudy - - - - -
21/01:00am 23.9 SE 4 14 1015.0 - 0.0 - Partly cloudy - - - - -
21/12:30am 23.8 SE 7 15 1015.1 - 0.0 - Partly cloudy - - - - -
21/12:00am 23.8 SE 9 18 1015.1 - 0.0 - Cloudy - - - - -
 
Date/Time
EST
Temp
°C
Wind Pressure Rain since
9am
mm
Weather Cloud Vis
km
Sea
Height
m
Swell
Dir  Spd
kts
Gust
kts
hPa Trend Height
m
Period
s
Dir
20/11:30pm 23.8 SE 10 20 1015.2 - 0.0 - Partly cloudy - - - - -
20/11:00pm 23.5 SE 4 18 1015.3 - 0.0 - Partly cloudy - - - - -
20/10:30pm 23.6 SE 7 17 1015.4 - 0.0 - Partly cloudy - - - - -
20/10:00pm 23.9 SE 11 18 1015.5 - 0.0 - Partly cloudy - - - - -
20/09:30pm 23.8 SE 11 19 1015.4 - 0.0 - Partly cloudy - - - - -
20/09:00pm 23.7 SE 11 20 1015.3 - 0.0 - Cloudy - - - - -
20/08:30pm 23.7 SE 8 18 1014.9 - 0.0 - Partly cloudy - - - - -
20/08:00pm 23.6 SE 9 16 1014.6 - 0.0 - Partly cloudy - - - - -
20/07:30pm 23.5 SE 4 14 1014.3 - 0.0 - Partly cloudy - - - - -
20/07:00pm 23.6 SE 1 13 1014.0 - 0.0 - Partly cloudy - - - - -
20/06:30pm 23.8 SE 5 15 1013.8 - 0.0 - Partly cloudy - - - - -
20/06:00pm 24.0 SE 7 16 1013.7 - 0.0 - Cloudy - - - - -
20/05:30pm 24.3 SE 4 14 1013.6 - 0.0 - Partly cloudy - - - - -
20/05:00pm 24.1 SE 6 15 1013.3 - 0.0 - Partly cloudy - - - - -
20/04:30pm 24.6 SE 7 16 1013.3 - 0.0 - Partly cloudy - - - - -
20/04:00pm 24.7 SE 6 14 1013.2 - 0.0 - Partly cloudy - - - - -
20/03:30pm 25.1 SE 10 18 1012.9 - 0.0 - Partly cloudy - - - - -
20/03:00pm 25.2 SE 11 18 1013.0 - 0.0 - Cloudy - - - - -
20/02:30pm 24.9 SSE 11 19 1013.2 - 0.0 - Cloudy - - - - -
20/02:00pm 25.5 SE 11 19 1013.4 - 0.0 - Cloudy - - - - -
20/01:30pm 25.6 SE 15 21 1013.7 - 0.0 - Cloudy - - - - -
20/01:00pm 25.4 SE 11 18 1013.9 - 0.0 - Partly cloudy - - - - -
20/12:30pm 25.7 SE 10 16 1014.2 - 0.0 - Partly cloudy - - - - -
20/12:00pm 25.3 SE 14 19 1014.6 - 0.0 - Cloudy - - - - -

Other Formats:

Comma delimited format used in spreadsheet applications
http://www.bom.gov.au/fwo/IDQ60701/IDQ60701.94186.axf

JavaScript Object Notation format (JSON) in row-major order
http://www.bom.gov.au/fwo/IDQ60701/IDQ60701.94186.json